Regional Weather Roundup
Issued by NWS

Home | Current Version | Previous Version | Text Only | Print | Product List | Glossary On
Versions: 1 2 3 4 5 6 7 8 9 10 11 12 13 14 15 16 17 18 19 20 21 22 23 24 25 26 27 28 29 30 31 32 33 34 35 36 37 38 39 40 41 42 43 44 45 46 47 48 49 50
000
ASUS43 KMKX 192000
RWRWI

WISCONSIN REGIONAL WEATHER ROUNDUP
NATIONAL WEATHER SERVICE MILWAUKEE/SULLIVAN WI
300 PM CDT FRI SEP 19 2014

NOTE: "FAIR" INDICATES FEW OR NO CLOUDS BELOW 12,000 FEET WITH NO
SIGNIFICANT WEATHER AND/OR OBSTRUCTIONS TO VISIBILITY.

WIZ001-002-006>008-014>016-023>028-192100-
NORTHWEST WISCONSIN

CITY           SKY/WX    TMP DP  RH WIND       PRES   REMARKS
SUPERIOR ARPT  CLOUDY    65  58  79 W8        29.70R
ASHLAND        PTSUNNY   67  56  67 S10G22    29.68F
HAYWARD        CLOUDY    67  56  67 S14G23    29.73F
SIREN          CLOUDY    67  57  69 SW5       29.73R
RICE LAKE      PTSUNNY   70  56  62 S13G25    29.74F
LADYSMITH      CLOUDY    69  57  65 S12       29.79F
EAU CLAIRE     SUNNY     73  56  54 S23G30    29.74F
MENOMONIE      PTCLDY    74  57  54 S16G25    29.74F
NEW RICHMOND   CLOUDY    73  58  58 S15G29    29.71F
OSCEOLA        CLOUDY    72  60  65 S10G18    29.74S
$$

WIZ003>005-009-010-017-018-192100-
NORTH CENTRAL WISCONSIN

CITY           SKY/WX    TMP DP  RH WIND       PRES   REMARKS
WOODRUFF       PTSUNNY   67  53  59 S17G32    29.81F
RHINELANDER    CLOUDY    67  52  58 S20G28    29.83S
EAGLE RIVER    CLOUDY    67  48  52 SW18G29   29.82R
LAND O LAKES   CLOUDY    67  49  52 S14G29    29.82R
PHILLIPS       CLOUDY    67  54  63 S15G31    29.79F
TOMAHAWK       PTSUNNY   67  53  59 S15G23    29.84S
MEDFORD        PTSUNNY   68  53  59 S23G32    29.84F
MERRILL        PTSUNNY   70  53  56 S14G29    29.86F
$$

WIZ029-030-035-036-043>047-192100-
CENTRAL WISCONSIN

CITY           SKY/WX    TMP DP  RH WIND       PRES   REMARKS
WAUSAU         PTSUNNY   70  52  52 S22G36    29.86F
MOSINEE        SUNNY     68  52  56 S23G32    29.88F
MARSHFIELD     PTSUNNY   71  54  54 S24G32    29.85F
STEVENS POINT  MOSUNNY   70  51  51 S16G30    29.90F
WAUPACA        MOSUNNY   73  53  49 S16       29.92F
WAUTOMA        NOT AVBL
WISC RAPIDS    MOSUNNY   72  52  49 S23G36    29.89F
CAMP DOUGLAS   NOT AVBL
$$

WIZ011>013-019>022-031-037>040-048>050-192100-
NORTHEAST WISCONSIN

CITY           SKY/WX    TMP DP  RH WIND       PRES   REMARKS
ANTIGO         PTSUNNY   65  52  63 S17G26    29.87F
STURGEON BAY   PTSUNNY   63  55  77 S23G31    29.94F
GREEN BAY      MOSUNNY   72  50  45 S20G32    29.92F
MANITOWOC      NOT AVBL
APPLETON       PTSUNNY   72  48  43 S20G26    29.93F
CLINTONVILLE   MOSUNNY   72  50  46 S21G28    29.90F
OSHKOSH        SUNNY     73  51  46 SW17G29   29.94F
$$

WIZ032>034-041-042-053>061-192100-
SOUTHWEST WISCONSIN

CITY           SKY/WX    TMP DP  RH WIND       PRES   REMARKS
LA CROSSE      SUNNY     76  56  49 S24G33    29.83F
SPARTA         NOT AVBL
VIROQUA        FAIR      72  54  53 S21G30    29.91F
BOSCOBEL       SUNNY     76  54  46 S13G25    29.93F
PRAIRIE DU CHI MOSUNNY   74  52  44 S12G17    29.93F
PLATTEVILLE    FAIR      73  53  48 S17G28    29.99F
$$

WIZ056-057-062-063-064-067-068-192100-
SOUTH CENTRAL WISCONSIN

CITY           SKY/WX    TMP DP  RH WIND       PRES   REMARKS
BARABOO/DELLS  SUNNY     73  49  43 S23G29    29.94F
LONE ROCK      NOT AVBL
WATERTOWN      SUNNY     73  50  44 S18G28    29.99F
MADISON        PTSUNNY   73  50  44 S22G28    29.97F
MIDDLETON      FAIR      74  48  40 S14G26    29.98F
MONROE         SUNNY     72  50  46 S21G26    30.00F
JANESVILLE     SUNNY     75  46  35 S20G26    30.00F
$$

WIZ051-052-058>065-066-070>072-192100-
SOUTHEAST WISCONSIN

CITY           SKY/WX    TMP DP  RH WIND       PRES   REMARKS
MILWAUKEE      MOSUNNY   73  48  41 S16G29    30.02F
WAUKESHA       NOT AVBL
MILWAUKEE/TIMM SUNNY     72  45  37 SW17G28   30.02F
RACINE         SUNNY     69  52  54 S21G29    30.05F
BURLINGTON     SUNNY     73  49  43 S8G20     30.03F
KENOSHA        SUNNY     72  49  44 S18G25    30.04F
FOND DU LAC    SUNNY     73  49  42 S21G33    29.95F
SHEBOYGAN      SUNNY     70  55  59 S14G24    29.98F
WEST BEND      SUNNY     72  46  40 S17G23    30.00F
JUNEAU         SUNNY     71  48  43 S23G32    29.99F
$$

LSZ147-162-192100-
LAKE SUPERIOR

STATION/POSITION TIME  TEMP    WIND        PRES    WAVE
                       AIR SEA DIR/SP/G            HT/PER
                 (UTC) (F)     (DEG/KT/KT) (MB)    (FT/S)
W MID LAKE BUOY  1850   52 48  250/  4/  6 1007.0R   2/ 5
DEVILS ISLAND    1900   59     210/  6/  8 1006.1F
PORT WING        1940   67     220/  9/ 14 1005.8F
SAXON HARBOR     1900   70     210/ 14/ 19 1006.1
$$

LMZ867-665-643>646-192100-
LAKE MICHIGAN

STATION/POSITION TIME  TEMP    WIND        PRES    WAVE
                       AIR SEA DIR/SP/G            HT/PER
                 (UTC) (F)     (DEG/KT/KT) (MB)    (FT/S)
N MID LAKE BUOY  1850   58 58  190/ 25/ 29 1015.3F   6/ 6
NORTHPORT PIER   1920   59     150/ 11     1014.2F
KEWAUNEE LAKESHO 1900   57     180/ 16/ 18 1014.8F
SHEBOYGAN LAKESH 1900   57 54  170/ 16/ 17 1016.8F
PORT WASHINGTON  1900   65     190/  6/ 14 1017.3
ATWATER BUOY     1900   61     160/ 17/ 21 1018.2F
MILWAUKEE LAKESH 1900   61     150/ 17/ 21   N/A
S MID LAKE BUOY  1850   64 65  180/ 16/ 17 1019.3F   3/ 6
KENOSHA   LAKESH 1900   63     170/ 14/ 15 1017.6F
$$

TC  - TEMPERATURE IN CELSIUS
VSB - VISIBILITY IN STATUTE MILES
WCI - WIND CHILL INDEX
HX  - HEAT INDEX



USA.gov is the U.S. government's official web portal to all federal, state and local government web resources and services.